Location: Lemona
(33.9803°N, 117.3259°W)
Time: 06:37:32
(UTC+00:00)

Daily predictions for brighter satellites

Satellite Brightness Start Highest point End
(mag) Time Altitude Azimuth Time Altitude Azimuth Time Altitude Azimuth
OE (NEXTSAT) 4.2 12:02:54 10° SW 12:06:10 90° NNW 12:09:27 10° NE
Cosmos 1513 Rocket 4.5 12:02:42 10° NNW 12:08:42 66° W 12:14:42 10° S
Envisat 3.5 12:05:53 10° NNE 12:10:56 64° E 12:15:57 10° S
ALOS 3.6 12:08:27 10° NNW 12:12:09 24° WNW 12:15:51 10° WSW
Cosmos 1633 Rocket 3.7 12:09:08 10° S 12:13:23 59° E 12:17:40 10° NNE
H-2A R/B 3.9 12:10:02 10° NNE 12:13:34 42° E 12:17:07 10° S
